Flag for Switzerland Weather past 2 weeks in Biel, Switzerland

Now
57 °F

Refreshingly cool.


Feels Like: 54 °F
Forecast: 38 / 60 °F
Wind: 12 mph from Northeast

Location: Grenchen

Current Time: Sep 22, 2014 at 8:35:33 PM

Latest Report: Sep 22, 2014 at 7:00 PM


Visibility: N/A

Pressure: 30.14 "Hg

Humidity: 58%

Dew point: 42 °F

Location of BielLocation

Historic Weather in Biel — Graph

°F

Biel temperature yesterday

Maximum temperature yesterday: 68 °F (at 2:00 PM)
Minimum temperature yesterday: 56 °F (at 3:00 AM)
Average temperature yesterday: 61 °F

Past Weeks' High & Low Weather Summary

 TemperatureHumidityPressure
High78 °F (Sep 8, 5:00 PM)100% (Sep 8, 6:00 AM)30.16 "Hg (Sep 8, 6:00 AM)
Low49 °F (Sep 12, 7:00 AM)42% (Sep 16, 5:00 PM)29.80 "Hg (Sep 17, 4:00 PM)
Average62 °F81%30.01 "Hg
* Reported Sep 7 7:00 PM — Sep 22 7:00 PM, Biel, Weather by CustomWeather, © 2014

Note: Actual official high and low records may vary slightly from our data, if they occured in-between our weather recording intervals... More about our weather records

Advertising

Biel weather history for previous 24 hours

 ConditionsComfort  
Time TempWeatherWind HumidityBarometerVisibility
7:00 PM
Sep 22
57 °FRefreshingly cool.12 mph58%30.14 "HgN/A
6:00 PM60 °FRefreshingly cool.10 mph53%30.11 "HgN/A
5:00 PM62 °FRefreshingly cool.9 mph47%30.08 "HgN/A
4:00 PM63 °FMild.9 mph49%30.07 "HgN/A
3:00 PM61 °FRefreshingly cool.7 mph50%30.09 "HgN/A
2:00 PM60 °FRefreshingly cool.3 mph55%30.12 "HgN/A
1:00 PM60 °FRefreshingly cool.5 mph60%30.13 "HgN/A
12:00 PM59 °FCool.5 mph65%30.14 "HgN/A
11:00 AM58 °FCool.3 mph71%30.15 "HgN/A
10:00 AM56 °FCool.7 mph75%30.15 "HgN/A
9:00 AM54 °FCool.3 mph83%30.16 "HgN/A
8:00 AM53 °FCool.3 mph87%30.15 "HgN/A
7:00 AM54 °FCool.1 mph86%30.13 "HgN/A
6:00 AM54 °FCool.2 mph91%30.12 "HgN/A
5:00 AM56 °FCool.2 mph90%30.11 "HgN/A
4:00 AM57 °FCool.3 mph80%30.11 "HgN/A
3:00 AM57 °FCool.2 mph89%30.11 "HgN/A
2:00 AM57 °FCool.2 mph84%30.11 "HgN/A
1:00 AM58 °FCool.2 mph85%30.11 "HgN/A
12:00 AM59 °FCool.5 mph94%30.09 "HgN/A
11:00 PM
Sep 21
59 °FCool.3 mph92%30.09 "HgN/A
10:00 PM59 °FCool.6 mph92%30.09 "HgN/A
9:00 PM60 °FCool.5 mph92%30.07 "HgN/A
8:00 PM61 °FCool.7 mph86%30.06 "HgN/A
Weather by CustomWeather, © 2014

See weather overviewHow to use our weather pages